User: anonymous   Login
Location: Unspecified
(0.0000°N, 0.0000°E)
Time: 20:15:21
(UTC+00:00)
Language:

TAURUS-1 - Orbit

View from above orbital plane
View from above orbital plane
View from above satellite
View from above satellite

Ground track
Ground track

The orbit data is extracted from the following two-line orbital elements,

1 44530U 19059C   22268.53251430  .00002185  00000-0  60711-3 0  9997
2 44530  98.5491   8.0398 0014077 172.4578 187.6826 14.47411754160323
Epoch (UTC): 25 September 2022 12:46:49
Eccentricity: 0.0014077
inclination: 98.5491°
perigee height: 724 km
apogee height: 744 km
right ascension of ascending node: 8.0398°
argument of perigee: 172.4578°
revolutions per day: 14.47411754
mean anomaly at epoch: 187.6826°
orbit number at epoch: 16032

The dashed part of the orbit path shows where the satellite is in the earth's shadow,  

DLR